Location: Unspecified
(47.2333°N, 39.7000°E)
Time: 22:08:25
(UTC+00:00)

ISS - Pass Details

Date: 13 July 2022
Orbit: 412 x 420 km, 51.6° (Epoch: 17 August)

Event Time Altitude Azimuth Distance (km) Brightness Sun altitude
Rises 19:40:51 0° 251° (WSW) 2,345 0.1 -17.0°
Reaches altitude 10° 19:42:57 10° 254° (WSW) 1,486 -0.9 -17.2°
Maximum altitude 19:46:17 70° 339° (NNW) 446 -3.5 -17.4°
Drops below altitude 10° 19:49:37 10° 63° (ENE) 1,497 -0.9 -17.6°
Sets 19:51:44 0° 66° (ENE) 2,364 0.1 -17.8°
